FW5262 Weather Reports


Display with metric or nautical units.
time (UTC)temp
F
wind
direction
speed
MPH
gust
MPH
rain 1hr
in
rain 24hr
in
rain mn
in
humidity
%
barometer
mb
20260508102821 59 132 4.0 9.0 0.00 0.00 0.00 83 944.2
20260508102315 59 123 2.0 6.0 0.00 0.00 0.00 82 944.3
20260508101810 59 107 2.0 4.0 0.00 0.00 0.00 82 944.3
20260508101304 59 105 2.0 4.0 0.00 0.00 0.00 83 944.3
20260508100757 59 100 3.0 6.0 0.00 0.00 0.00 83 944.1
20260508100253 59 76 3.0 6.0 0.00 0.00 0.00 82 944.1
20260508095745 59 76 3.0 4.0 0.00 0.00 0.00 82 944.2
20260508095240 59 101 3.0 4.0 0.00 0.00 0.00 82 944.3
20260508094733 59 88 2.0 4.0 0.00 0.00 0.00 82 944.3
20260508094228 59 109 1.0 4.0 0.00 0.00 0.00 82 944.5
20260508093216 59 80 0.0 0.0 0.00 0.00 0.00 82 944.6
20260508092942 59 80 0.0 0.0 0.00 0.00 0.00 82 944.6
20260508092204 59 95 0.0 0.0 0.00 0.00 0.00 81 944.6
20260508091658 59 57 0.0 3.0 0.00 0.00 0.00 82 944.5
20260508090646 59 98 0.0 0.0 0.00 0.00 0.00 81 944.5
20260508090140 59 98 0.0 0.0 0.00 0.00 0.00 81 944.4
20260508084622 59 67 0.0 0.0 0.00 0.00 0.00 83 944.4
20260508084116 59 338 0.0 0.0 0.00 0.00 0.00 82 944.4
20260508083842 58 338 0.0 0.0 0.00 0.00 0.00 83 944.6
20260508083104 58 338 0.0 0.0 0.00 0.00 0.00 83 944.5
20260508082558 58 109 0.0 2.0 0.00 0.00 0.00 83 944.5
20260508082058 58 109 0.0 2.0 0.00 0.00 0.00 83 944.5
20260508081558 58 109 1.0 3.0 0.00 0.00 0.00 84 944.6
20260508081056 58 109 1.0 3.0 0.00 0.00 0.00 84 944.5
20260508080826 58 88 1.0 2.0 0.00 0.00 0.00 84 944.5
20260508080054 58 88 1.0 3.0 0.00 0.00 0.00 85 944.5
20260508075823 57 112 2.0 4.0 0.00 0.00 0.00 85 944.5
20260508075053 57 166 2.0 4.0 0.00 0.00 0.00 86 944.4
20260508074555 57 128 1.0 4.0 0.00 0.00 0.00 85 944.3
20260508073052 57 125 2.0 4.0 0.00 0.00 0.00 84 944.3
20260508072554 57 117 1.0 3.0 0.00 0.00 0.00 84 944.2
20260508072052 58 122 0.0 0.0 0.00 0.00 0.00 85 944.3
20260508071553 58 122 0.0 0.0 0.00 0.00 0.00 84 944.4
20260508070548 58 122 1.0 4.0 0.00 0.00 0.00 83 944.5
20260508070047 58 122 3.0 6.0 0.00 0.00 0.00 83 944.4
20260508065819 58 121 4.0 7.0 0.00 0.00 0.00 83 944.4
20260508065047 58 130 3.0 7.0 0.00 0.00 0.00 83 944.4
20260508064546 59 133 3.0 9.0 0.00 0.00 0.00 82 944.6
20260508064047 59 111 3.0 9.0 0.00 0.00 0.00 82 944.7
20260508063600 60 142 5.0 12.0 0.00 0.00 0.00 80 944.8
20260508063547 60 105 4.0 12.0 0.00 0.00 0.00 81 944.7
20260508062547 60 153 4.0 11.0 0.00 0.00 0.00 79 945.0
20260508062047 60 184 3.0 7.0 0.00 0.00 0.00 79 945.0
20260508061548 60 144 4.0 9.0 0.00 0.00 0.00 79 944.9
20260508061046 60 153 4.0 9.0 0.00 0.00 0.00 79 945.0
20260508060547 60 162 4.0 8.0 0.00 0.00 0.00 79 944.9
20260508060046 60 165 4.0 7.0 0.00 0.00 0.00 78 945.2
20260508055547 60 157 3.0 7.0 0.00 0.00 0.00 78 945.3
20260508055046 60 167 2.0 5.0 0.00 0.00 0.00 79 945.4
20260508054545 60 167 2.0 4.0 0.00 0.00 0.00 79 945.4
20260508054317 60 198 2.0 4.0 0.00 0.00 0.00 79 945.6
20260508053540 60 216 2.0 5.0 0.00 0.00 0.00 80 945.5
20260508053034 60 223 3.0 5.0 0.00 0.00 0.00 80 945.6
20260508052527 60 197 3.0 5.0 0.00 0.00 0.00 80 945.5
20260508052022 60 155 3.0 6.0 0.00 0.00 0.00 79 945.5
20260508051515 60 153 3.0 7.0 0.00 0.00 0.00 79 945.3
20260508051010 60 167 3.0 7.0 0.00 0.00 0.00 79 945.5
20260508050504 60 134 3.0 7.0 0.00 0.00 0.00 79 945.5
20260508045958 60 180 4.0 7.0 0.00 0.00 0.00 79 945.6
20260508045452 60 184 3.0 6.0 0.00 0.00 0.00 80 945.6
20260508044945 60 156 3.0 6.0 0.00 0.00 0.00 80 945.6
20260508044440 60 161 3.0 6.0 0.00 0.00 0.00 80 945.6
20260508043934 60 159 2.0 6.0 0.00 0.00 0.00 79 945.6
20260508043659 60 151 3.0 6.0 0.00 0.00 0.00 79 945.7
20260508042922 60 144 4.0 7.0 0.00 0.00 0.00 79 945.8
20260508042415 60 180 4.0 8.0 0.00 0.00 0.00 79 945.7
20260508041910 60 190 4.0 8.0 0.00 0.00 0.00 79 945.8
20260508041403 60 174 4.0 8.0 0.00 0.00 0.00 79 945.8
20260508040858 60 163 4.0 8.0 0.00 0.00 0.00 79 945.8
20260508040352 60 151 3.0 6.0 0.00 0.00 0.00 79 945.7
20260508035846 60 167 3.0 7.0 0.00 0.00 0.00 79 945.8
20260508035339 60 194 4.0 7.0 0.00 0.00 0.00 78 945.9
20260508034834 60 165 4.0 7.0 0.00 0.00 0.00 78 946.0
20260508034328 60 177 4.0 7.0 0.00 0.00 0.00 78 946.0
20260508033822 60 164 4.0 7.0 0.00 0.00 0.00 78 946.2
20260508033316 60 223 5.0 9.0 0.00 0.00 0.00 78 946.2
20260508032809 60 192 5.0 11.0 0.00 0.00 0.00 77 946.1
20260508032306 61 193 5.0 11.0 0.00 0.00 0.00 77 946.1
20260508031757 61 184 5.0 8.0 0.00 0.00 0.00 77 945.9
20260508031524 61 184 5.0 8.0 0.00 0.00 0.00 77 945.8
20260508030746 61 200 5.0 8.0 0.00 0.00 0.00 77 946.0
20260508030239 61 190 5.0 8.0 0.00 0.00 0.00 77 946.0
20260508025734 61 226 5.0 8.0 0.00 0.00 0.00 76 945.7
20260508025228 61 200 5.0 8.0 0.00 0.00 0.00 76 945.5
20260508024722 61 199 4.0 8.0 0.00 0.00 0.00 75 945.5
20260508024215 61 218 3.0 6.0 0.00 0.00 0.00 73 945.5
20260508023712 62 186 3.0 6.0 0.00 0.00 0.00 72 945.4
20260508023706 62 163 3.0 6.0 0.00 0.00 0.00 71 945.4
20260508022658 62 139 3.0 5.0 0.00 0.00 0.00 71 945.3
20260508022151 62 160 2.0 5.0 0.00 0.00 0.00 70 945.2
20260508021646 62 156 2.0 5.0 0.00 0.00 0.00 69 945.0
20260508021139 62 167 3.0 8.0 0.00 0.00 0.00 69 944.9
20260508020634 63 166 4.0 8.0 0.00 0.00 0.00 68 944.8
20260508020128 63 145 4.0 8.0 0.00 0.00 0.00 68 944.7
20260508015621 63 157 4.0 8.0 0.00 0.00 0.00 68 944.7
20260508015116 63 150 4.0 8.0 0.00 0.00 0.00 68 944.6
20260508014609 63 127 4.0 9.0 0.00 0.00 0.00 68 944.6
20260508014103 63 155 4.0 9.0 0.00 0.00 0.00 68 944.6
20260508013558 64 156 4.0 7.0 0.00 0.00 0.00 67 944.7
20260508013052 64 160 4.0 7.0 0.00 0.00 0.00 67 944.6
20260508012817 64 0 4.0 7.0 0.00 0.00 0.00 66 944.4
20260508012040 64 138 4.0 7.0 0.00 0.00 0.00 65 944.4
20260508011533 64 143 4.0 8.0 0.00 0.00 0.00 64 944.5
20260508011029 64 138 4.0 9.0 0.00 0.00 0.00 63 944.5
20260508010522 65 144 4.0 9.0 0.00 0.00 0.00 62 944.5
20260508010016 65 126 5.0 9.0 0.00 0.00 0.00 61 944.5
20260508005509 65 184 6.0 12.0 0.00 0.00 0.00 60 944.5
20260508005004 65 154 6.0 12.0 0.00 0.00 0.00 60 944.5
20260508004457 66 110 6.0 12.0 0.00 0.00 0.00 61 944.5
20260508004223 66 122 6.0 10.0 0.00 0.00 0.00 60 944.6
20260508003446 66 119 5.0 10.0 0.00 0.00 0.00 58 944.5
20260508002939 66 129 6.0 12.0 0.00 0.00 0.00 58 944.7
20260508002434 67 126 6.0 12.0 0.00 0.00 0.00 57 944.7
20260508001927 67 135 6.0 11.0 0.00 0.00 0.00 57 944.9
20260508001422 67 158 6.0 12.0 0.00 0.00 0.00 57 944.8
20260508000916 67 142 7.0 14.0 0.00 0.00 0.00 57 944.9
20260508000412 67 109 7.0 15.0 0.00 0.00 0.00 57 944.7
20260507235904 68 159 7.0 15.0 0.00 0.00 0.00 56 944.7
20260507235400 68 149 6.0 12.0 0.00 0.00 0.00 56 944.8
20260507234901 68 127 6.0 14.0 0.00 0.00 0.00 58 944.9
20260507234401 68 155 7.0 14.0 0.00 0.00 0.00 56 944.9
20260507233904 68 123 7.0 13.0 0.00 0.00 0.00 56 944.9
20260507233401 68 138 7.0 13.0 0.00 0.00 0.00 58 944.9
20260507232900 68 148 8.0 15.0 0.00 0.00 0.00 57 944.9
20260507232401 68 145 8.0 15.0 0.00 0.00 0.00 57 944.8
20260507231902 68 133 6.0 12.0 0.00 0.00 0.00 57 944.8
20260507231358 69 132 7.0 12.0 0.00 0.00 0.00 57 944.8
20260507230858 69 130 7.0 13.0 0.00 0.00 0.00 58 944.9
20260507230356 69 120 6.0 13.0 0.00 0.00 0.00 57 945.1
20260507230138 69 107 7.0 14.0 0.00 0.00 0.00 58 945.1
20260507225358 69 115 7.0 14.0 0.00 0.00 0.00 56 945.2
20260507224854 69 138 8.0 14.0 0.00 0.00 0.00 56 945.2
20260507224634 70 122 8.0 17.0 0.00 0.00 0.00 55 945.3
20260507223850 70 118 8.0 17.0 0.00 0.00 0.00 55 945.4
20260507223350 70 154 9.0 17.0 0.00 0.00 0.00 56 945.5
20260507222851 70 122 9.0 17.0 0.00 0.00 0.00 55 945.4
20260507222630 71 156 9.0 16.0 0.00 0.00 0.00 55 945.5
20260507222517 71 127 8.0 16.0 0.00 0.00 0.00 55 945.3
20260507221351 71 101 8.0 15.0 0.00 0.00 0.00 54 945.3
20260507220851 71 133 9.0 15.0 0.00 0.00 0.00 53 945.4
20260507220352 71 117 9.0 14.0 0.00 0.00 0.00 54 945.4
20260507215855 71 121 10.0 16.0 0.00 0.00 0.00 53 945.4
20260507215851 71 144 9.0 14.0 0.00 0.00 0.00 54 945.3
20260507214922 71 88 9.0 17.0 0.00 0.00 0.00 53 945.5
20260507214347 71 112 8.0 17.0 0.00 0.00 0.00 53 945.5
20260507213847 71 105 8.0 14.0 0.00 0.00 0.00 52 945.6
20260507213347 71 86 7.0 13.0 0.00 0.00 0.00 56 945.6
20260507213118 71 172 8.0 15.0 0.00 0.00 0.00 52 945.6
20260507212347 70 157 8.0 15.0 0.00 0.00 0.00 53 945.8
20260507211848 70 105 9.0 17.0 0.00 0.00 0.00 55 945.9
20260507211619 70 94 10.0 19.0 0.00 0.00 0.00 53 946.0
20260507211111 70 126 11.0 20.0 0.00 0.00 0.00 55 946.0
20260507210335 70 114 12.0 20.0 0.00 0.00 0.00 53 946.1
20260507205828 71 149 12.0 19.0 0.00 0.00 0.00 52 946.1
20260507205323 73 131 8.0 19.0 0.00 0.00 0.00 51 946.0
20260507204817 74 152 6.0 11.0 0.00 0.00 0.00 48 946.0
20260507204310 74 94 5.0 11.0 0.00 0.00 0.00 46 946.1
20260507203805 74 132 5.0 10.0 0.00 0.00 0.00 49 946.1
20260507203530 74 18 8.0 14.0 0.00 0.00 0.00 48 946.1
20260507202753 74 97 8.0 15.0 0.00 0.00 0.00 49 946.2
20260507202246 73 82 7.0 15.0 0.00 0.00 0.00 52 946.4
20260507201740 73 136 7.0 11.0 0.00 0.00 0.00 50 946.5
20260507201235 73 87 6.0 11.0 0.00 0.00 0.00 50 946.7
20260507200728 73 123 6.0 16.0 0.00 0.00 0.00 48 946.8
20260507200223 73 97 7.0 16.0 0.00 0.00 0.00 50 946.8
20260507195717 73 144 6.0 13.0 0.00 0.00 0.00 49 946.7
20260507195210 73 86 5.0 11.0 0.00 0.00 0.00 48 946.6
20260507194705 72 79 6.0 11.0 0.00 0.00 0.00 49 946.8
20260507194159 72 25 5.0 11.0 0.00 0.00 0.00 49 946.7
20260507193652 72 67 4.0 11.0 0.00 0.00 0.00 48 946.7
20260507193146 72 53 5.0 11.0 0.00 0.00 0.00 46 946.6
20260507192641 72 132 5.0 11.0 0.00 0.00 0.00 47 946.6
20260507192134 71 71 5.0 10.0 0.00 0.00 0.00 50 946.8
20260507191629 71 57 5.0 10.0 0.00 0.00 0.00 51 946.9
20260507191122 71 83 5.0 11.0 0.00 0.00 0.00 49 947.0
20260507190617 71 26 6.0 11.0 0.00 0.00 0.00 50 947.2
20260507190110 71 46 5.0 10.0 0.00 0.00 0.00 51 947.2
20260507185836 71 32 5.0 10.0 0.00 0.00 0.00 54 947.3
20260507185330 71 94 5.0 10.0 0.00 0.00 0.00 48 947.3
20260507184552 71 84 4.0 11.0 0.00 0.00 0.00 54 947.4
20260507184047 71 69 6.0 13.0 0.00 0.00 0.00 48 947.4
20260507183541 71 96 6.0 13.0 0.00 0.00 0.00 48 947.6
20260507183034 71 41 6.0 13.0 0.00 0.00 0.00 48 947.7
20260507182800 71 38 5.0 11.0 0.00 0.00 0.00 50 948.0
20260507182023 70 55 7.0 14.0 0.00 0.00 0.00 48 948.1
20260507181519 71 74 8.0 14.0 0.00 0.00 0.00 48 948.2
20260507181011 71 61 7.0 13.0 0.00 0.00 0.00 47 948.0
20260507180505 71 42 7.0 14.0 0.00 0.00 0.00 48 948.0
20260507175959 71 138 7.0 15.0 0.00 0.00 0.00 50 947.9
20260507175452 70 29 8.0 15.0 0.00 0.00 0.00 50 947.8
20260507174947 70 42 8.0 14.0 0.00 0.00 0.00 53 947.8
20260507174440 69 76 8.0 14.0 0.00 0.00 0.00 51 947.8
20260507173934 69 49 9.0 16.0 0.00 0.00 0.00 50 947.8
20260507173429 69 50 8.0 16.0 0.00 0.00 0.00 52 947.8
20260507172922 69 62 8.0 16.0 0.00 0.00 0.00 51 947.9
20260507172417 69 11 8.0 16.0 0.00 0.00 0.00 54 948.0
20260507171910 69 51 8.0 16.0 0.00 0.00 0.00 53 948.1
20260507171636 69 9 8.0 16.0 0.00 0.00 0.00 52 948.2
20260507170859 69 44 8.0 16.0 0.00 0.00 0.00 51 948.3
20260507170636 69 322 8.0 16.0 0.00 0.00 0.00 54 948.4
20260507165848 69 54 8.0 16.0 0.00 0.00 0.00 54 948.5
20260507165612 69 9 7.0 16.0 0.00 0.00 0.00 55 948.6
20260507164835 68 59 8.0 18.0 0.00 0.00 0.00 54 948.7
20260507164331 68 10 9.0 18.0 0.00 0.00 0.00 52 948.9
20260507164055 67 350 9.0 16.0 0.00 0.00 0.00 57 949.0
20260507163316 67 69 8.0 16.0 0.00 0.00 0.00 54 949.1
20260507162811 67 9 8.0 18.0 0.00 0.00 0.00 56 949.1
20260507162307 67 78 8.0 18.0 0.00 0.00 0.00 52 949.1
20260507161758 66 74 7.0 13.0 0.00 0.00 0.00 55 949.2
20260507161252 66 69 9.0 14.0 0.00 0.00 0.00 56 949.3
20260507160747 66 97 8.0 14.0 0.00 0.00 0.00 55 949.3
20260507160241 65 30 8.0 12.0 0.00 0.00 0.00 58 949.5
20260507155734 65 12 8.0 14.0 0.00 0.00 0.00 58 949.4
20260507155229 65 45 8.0 14.0 0.00 0.00 0.00 58 949.4
20260507154954 64 47 7.0 14.0 0.00 0.00 0.00 59 949.4
20260507154216 64 57 6.0 14.0 0.00 0.00 0.00 61 949.4
20260507153959 63 46 7.0 12.0 0.00 0.00 0.00 61 949.5
20260507153209 63 57 7.0 14.0 0.00 0.00 0.00 62 949.5
20260507153204 63 64 7.0 14.0 0.00 0.00 0.00 62 949.7
20260507152152 62 79 8.0 15.0 0.00 0.00 0.00 63 949.8
20260507151648 62 76 7.0 15.0 0.00 0.00 0.00 64 949.7
20260507151148 62 66 6.0 11.0 0.00 0.00 0.00 66 949.8
20260507150647 62 76 6.0 12.0 0.00 0.00 0.00 65 949.8
20260507150425 61 55 7.0 13.0 0.00 0.00 0.00 65 949.7
20260507145649 61 76 7.0 13.0 0.00 0.00 0.00 67 949.7
20260507145147 60 84 6.0 11.0 0.00 0.00 0.00 70 949.8
20260507144648 60 86 6.0 10.0 0.00 0.00 0.00 70 949.8
20260507144148 59 77 7.0 12.0 0.00 0.00 0.00 72 949.8
20260507143648 58 48 7.0 14.0 0.00 0.00 0.00 72 949.9
20260507143149 58 76 5.0 14.0 0.00 0.00 0.00 74 949.9
20260507142649 57 77 4.0 10.0 0.00 0.00 0.00 79 949.7
20260507142146 56 43 6.0 13.0 0.00 0.00 0.00 78 949.8
20260507141646 56 32 6.0 13.0 0.00 0.00 0.00 76 949.7
20260507141147 56 49 5.0 12.0 0.00 0.00 0.00 78 949.7
20260507140641 56 76 5.0 12.0 0.00 0.00 0.00 79 949.8
20260507140141 55 61 6.0 10.0 0.00 0.00 0.00 79 949.9
20260507135641 55 86 5.0 10.0 0.00 0.00 0.00 80 949.8
20260507135142 55 48 5.0 9.0 0.00 0.00 0.00 84 949.8
20260507134641 54 40 5.0 9.0 0.00 0.00 0.00 83 949.8
20260507134412 54 67 4.0 9.0 0.00 0.00 0.00 83 949.8
20260507133922 54 39 5.0 12.0 0.00 0.00 0.00 83 949.9
20260507133142 54 20 5.0 12.0 0.00 0.00 0.00 83 949.8
20260507132643 54 35 5.0 9.0 0.00 0.00 0.00 84 949.9
20260507132422 53 65 5.0 9.0 0.00 0.00 0.00 86 949.8
20260507131643 53 34 4.0 9.0 0.00 0.00 0.00 86 949.8
20260507131142 52 51 4.0 9.0 0.00 0.00 0.00 90 949.7
20260507130642 51 38 4.0 9.0 0.00 0.00 0.00 90 949.8
20260507130141 51 338 4.0 8.0 0.00 0.00 0.00 90 949.9
20260507125642 51 332 5.0 9.0 0.00 0.00 0.00 91 949.8
20260507125143 50 0 5.0 9.0 0.00 0.00 0.00 91 949.7
20260507124641 50 344 4.0 8.0 0.00 0.00 0.00 92 949.7
20260507124141 50 323 4.0 8.0 0.00 0.00 0.00 92 949.8
20260507123635 49 18 4.0 8.0 0.00 0.00 0.00 92 949.7
20260507123130 49 350 4.0 8.0 0.00 0.00 0.00 92 949.7
20260507122624 49 5 3.0 5.0 0.00 0.00 0.00 92 949.7
20260507122118 49 355 2.0 4.0 0.00 0.00 0.00 92 949.9
20260507121611 49 355 2.0 4.0 0.00 0.00 0.00 91 949.9
20260507121106 49 340 2.0 4.0 0.00 0.00 0.00 91 950.0
20260507120600 49 350 2.0 4.0 0.00 0.00 0.00 91 949.9
20260507120054 49 346 3.0 4.0 0.00 0.00 0.00 91 949.8
20260507115548 49 355 3.0 4.0 0.00 0.00 0.00 91 949.7
20260507115042 49 338 3.0 4.0 0.00 0.00 0.00 91 949.7
20260507114536 49 340 3.0 4.0 0.00 0.00 0.00 91 949.7
20260507114030 49 338 3.0 4.0 0.00 0.00 0.00 91 949.7
20260507113524 49 338 2.0 4.0 0.00 0.00 0.00 91 949.7
20260507113018 49 346 2.0 4.0 0.00 0.00 0.00 90 949.8
20260507112512 49 346 2.0 4.0 0.00 0.00 0.00 90 949.8
20260507112005 49 0 3.0 4.0 0.00 0.00 0.00 90 949.8
20260507111500 49 5 3.0 4.0 0.00 0.00 0.00 90 949.8
20260507110953 49 17 3.0 4.0 0.00 0.00 0.00 91 949.7
20260507110447 49 355 3.0 5.0 0.00 0.00 0.00 90 949.8
20260507105942 49 0 3.0 5.0 0.00 0.00 0.00 90 949.7
20260507105708 49 349 2.0 4.0 0.00 0.00 0.00 90 949.7
20260507105200 49 13 2.0 4.0 0.00 0.00 0.00 90 949.8
20260507104424 49 5 1.0 3.0 0.00 0.00 0.00 90 949.8
20260507103918 50 5 1.0 2.0 0.00 0.00 0.00 89 949.9
20260507103412 50 5 1.0 2.0 0.00 0.00 0.00 89 949.9
20260507102905 50 5 1.0 3.0 0.00 0.00 0.00 89 949.8